This is the latest recevied weather packets stored in our database for station/object N8QF. If no packets are shown the sender has not sent any weather packets the latest 10 day(s).
| Time | Temp. | Humidity | Pressure | Rain* | Wind** | Luminosity | Snow |
|---|---|---|---|---|---|---|---|
| 1777731879 | 8.89° C | 59% | 1017.6 hPa | 0 mm | - | - | - |
| 1777731579 | 8.33° C | 57% | 1017.5 hPa | 0 mm | - | - | - |
| 1777731279 | 7.78° C | 54% | 1017.6 hPa | 0 mm | - | - | - |
| 1777730978 | 8.33° C | 56% | 1017.5 hPa | 0 mm | - | - | - |
| 1777730678 | 8.33° C | 56% | 1017.5 hPa | 0 mm | - | - | - |
| 1777730378 | 8.33° C | 59% | 1017.4 hPa | 0 mm | - | - | - |
| 1777730078 | 7.22° C | 57% | 1017.5 hPa | 0 mm | - | - | - |
| 1777729778 | 7.78° C | 56% | 1017.5 hPa | 0 mm | - | - | - |
| 1777729477 | 7.78° C | 60% | 1017.5 hPa | 0 mm | - | - | - |
| 1777729176 | 7.22° C | 56% | 1017.5 hPa | 0 mm | - | - | - |
| 1777728876 | 7.22° C | 58% | 1017.6 hPa | 0 mm | - | - | - |
| 1777728578 | 6.67° C | 58% | 1017.6 hPa | 0 mm | - | - | - |
| 1777728276 | 7.22° C | 60% | 1017.6 hPa | 0 mm | - | - | - |
| 1777727975 | 6.67° C | 58% | 1017.6 hPa | 0 mm | - | - | - |
| 1777727675 | 6.67° C | 64% | 1017.5 hPa | 0 mm | - | - | - |
| 1777727374 | 6.67° C | 66% | 1017.5 hPa | 0 mm | - | - | - |
| 1777727074 | 6.67° C | 66% | 1017.5 hPa | 0 mm | - | - | - |
| 1777726774 | 6.11° C | 61% | 1017.5 hPa | 0 mm | - | - | - |
| 1777726474 | 6.11° C | 66% | 1017.5 hPa | 0 mm | - | - | - |
| 1777726173 | 6.11° C | 67% | 1017.5 hPa | 0 mm | - | - | - |
| 1777725873 | 6.11° C | 67% | 1017.4 hPa | 0 mm | - | - | - |
| 1777725573 | 6.11° C | 69% | 1017.4 hPa | 0 mm | - | - | - |
| 1777725270 | 5.56° C | 70% | 1017.4 hPa | 0 mm | - | - | - |
| 1777724971 | 5.56° C | 74% | 1017.4 hPa | 0 mm | - | - | - |
| 1777724670 | 5.56° C | 74% | 1017.4 hPa | 0 mm | - | - | - |
* Rain since midnight (hover to see other rain measurements)
** Current wind speed in m/s (hover to see current wind gust speed)